Location: Bílinka
(49.3579°N, 14.3767°E)
Time: 10:16:36
(UTC+00:00)

FENGYUN 1C DEB - Pass Details

Date: 29 February 2024
Orbit: 850 x 890 km, 98.8° (Epoch: 12 April)

Event Time Altitude Azimuth Distance (km) Brightness Sun altitude
Rises 18:16:48 0° 175° (S) 3,409 ? -15.8°
Reaches altitude 10° 18:19:11 10° 180° (S) 2,480 ? -16.2°
Maximum altitude 18:24:36 58° 259° (W) 999 ? -17.1°
Drops below altitude 10° 18:30:08 10° 338° (NNW) 2,521 ? -17.9°
Sets 18:32:35 0° 343° (NNW) 3,469 ? -18.3°
